Datum;Richtung;Anzahl Messungen;Anzahl Fahrzeuge;Durchschnittsgeschwindigkeit;Höchstgeschwindigkeit
06/12/2021 10:00;1;2;2;17.50;19.00
06/12/2021 10:30;1;5;5;22.20;28.00
06/12/2021 11:00;1;9;9;21.67;25.00
06/12/2021 11:30;1;4;4;22.00;32.00
06/12/2021 12:00;1;9;9;23.67;36.00
06/12/2021 12:30;1;7;7;21.86;27.00
06/12/2021 13:00;1;10;10;23.00;28.00
06/12/2021 14:30;1;143;143;41.91;101.00
06/12/2021 15:00;1;164;164;37.40;63.00
06/12/2021 15:30;1;129;129;38.07;51.00
06/12/2021 16:00;1;138;138;37.20;57.00
06/12/2021 16:30;1;120;120;37.42;62.00
06/12/2021 17:00;1;132;132;35.89;50.00
06/12/2021 17:30;1;136;136;36.69;59.00
06/12/2021 18:00;1;122;122;38.11;53.00
06/12/2021 18:30;1;121;121;38.72;58.00
06/12/2021 19:00;1;102;102;38.55;57.00
06/12/2021 19:30;1;114;114;39.09;56.00
06/12/2021 20:00;1;80;80;39.20;49.00
06/12/2021 20:30;1;75;75;37.91;51.00
06/12/2021 21:00;1;60;60;39.73;56.00
06/12/2021 21:30;1;45;45;40.91;54.00
06/12/2021 22:00;1;44;44;36.93;46.00
06/12/2021 22:30;1;29;29;41.24;51.00
06/12/2021 23:00;1;19;19;40.53;56.00
06/12/2021 23:30;1;13;13;42.38;62.00
07/12/2021 00:00;1;8;8;39.12;54.00
07/12/2021 00:30;1;6;6;40.17;45.00
07/12/2021 01:00;1;4;4;57.00;75.00
07/12/2021 01:30;1;7;7;43.43;49.00
07/12/2021 02:00;1;3;3;43.67;46.00
07/12/2021 02:30;1;4;4;48.25;72.00
07/12/2021 03:30;1;4;4;41.75;48.00
07/12/2021 04:00;1;12;12;42.83;57.00
07/12/2021 04:30;1;20;20;44.25;57.00
07/12/2021 05:00;1;16;16;38.12;45.00
07/12/2021 05:30;1;83;83;41.30;62.00
07/12/2021 06:00;1;78;78;42.38;58.00
07/12/2021 06:30;1;145;145;39.77;53.00
07/12/2021 07:00;1;183;183;38.50;52.00
07/12/2021 07:30;1;216;216;34.69;48.00
07/12/2021 08:00;1;192;192;37.25;47.00
07/12/2021 08:30;1;176;176;36.35;50.00
07/12/2021 09:00;1;178;178;37.08;65.00
07/12/2021 09:30;1;168;168;35.28;51.00
07/12/2021 10:00;1;155;155;36.90;55.00
07/12/2021 10:30;1;150;150;36.84;52.00
07/12/2021 11:00;1;155;155;36.68;48.00
07/12/2021 11:30;1;128;128;37.91;51.00
07/12/2021 12:00;1;148;148;37.04;50.00
07/12/2021 12:30;1;129;129;36.87;47.00
07/12/2021 13:00;1;135;135;38.10;51.00
07/12/2021 13:30;1;141;141;36.26;52.00
07/12/2021 14:00;1;139;139;36.96;54.00
07/12/2021 14:30;1;155;155;36.92;51.00
07/12/2021 15:00;1;134;134;36.24;61.00
07/12/2021 15:30;1;135;135;35.78;51.00
07/12/2021 16:00;1;138;138;36.64;50.00
07/12/2021 16:30;1;113;113;34.65;51.00
07/12/2021 17:00;1;137;137;36.45;56.00
07/12/2021 17:30;1;128;128;35.09;53.00
07/12/2021 18:00;1;119;119;27.23;53.00
07/12/2021 18:30;1;113;113;32.80;59.00
07/12/2021 19:00;1;117;117;37.93;52.00
07/12/2021 19:30;1;111;111;40.05;61.00
07/12/2021 20:00;1;80;80;38.46;56.00
07/12/2021 20:30;1;66;66;40.06;64.00
07/12/2021 21:00;1;70;70;39.81;56.00
07/12/2021 21:30;1;62;62;39.97;54.00
07/12/2021 22:00;1;46;46;42.59;62.00
07/12/2021 22:30;1;45;45;41.76;62.00
07/12/2021 23:00;1;22;22;42.18;54.00
07/12/2021 23:30;1;10;10;41.50;49.00
08/12/2021 00:00;1;7;7;34.14;52.00
08/12/2021 00:30;1;7;7;37.71;45.00
08/12/2021 01:00;1;5;5;44.80;53.00
08/12/2021 01:30;1;7;7;41.43;49.00
08/12/2021 02:00;1;2;2;49.50;56.00
08/12/2021 02:30;1;5;5;51.00;82.00
08/12/2021 03:30;1;12;12;39.67;45.00
08/12/2021 04:00;1;4;4;44.00;53.00
08/12/2021 04:30;1;17;17;43.18;56.00
08/12/2021 05:00;1;18;18;37.94;50.00
08/12/2021 05:30;1;61;61;41.18;57.00
08/12/2021 06:00;1;103;103;41.63;61.00
08/12/2021 06:30;1;141;141;39.77;52.00
08/12/2021 07:00;1;174;174;38.70;64.00
08/12/2021 07:30;1;212;212;36.42;53.00
08/12/2021 08:00;1;179;179;34.89;47.00
08/12/2021 08:30;1;135;135;32.54;47.00
08/12/2021 09:00;1;173;173;35.72;54.00
08/12/2021 09:30;1;182;182;35.88;50.00
08/12/2021 10:00;1;151;151;36.16;51.00
08/12/2021 10:30;1;135;135;37.25;50.00
08/12/2021 11:00;1;127;127;39.31;57.00
08/12/2021 11:30;1;109;109;37.34;48.00
08/12/2021 12:00;1;135;135;38.07;52.00
08/12/2021 12:30;1;123;123;37.41;52.00
08/12/2021 13:00;1;140;140;37.33;50.00
08/12/2021 13:30;1;128;128;38.76;58.00
08/12/2021 14:00;1;111;111;37.49;58.00
08/12/2021 14:30;1;130;130;37.32;57.00
08/12/2021 15:00;1;113;113;37.48;50.00
08/12/2021 15:30;1;129;129;38.37;64.00
08/12/2021 16:00;1;91;91;36.96;52.00
08/12/2021 16:30;1;97;97;36.02;51.00
08/12/2021 17:00;1;96;96;36.30;47.00
08/12/2021 17:30;1;100;100;35.76;50.00
08/12/2021 18:00;1;116;116;36.22;49.00
08/12/2021 18:30;1;82;82;37.24;49.00
08/12/2021 19:00;1;94;94;37.96;52.00
08/12/2021 19:30;1;87;87;39.97;56.00
08/12/2021 20:00;1;85;85;39.31;63.00
08/12/2021 20:30;1;66;66;39.45;58.00
08/12/2021 21:00;1;46;46;40.70;56.00
08/12/2021 21:30;1;53;53;42.21;63.00
08/12/2021 22:00;1;42;42;39.69;63.00
08/12/2021 22:30;1;38;38;41.37;68.00
08/12/2021 23:00;1;34;34;41.26;69.00
08/12/2021 23:30;1;12;12;43.17;59.00
09/12/2021 00:00;1;16;16;40.12;72.00
09/12/2021 00:30;1;7;7;45.14;62.00
09/12/2021 01:00;1;9;9;38.56;61.00
09/12/2021 01:30;1;5;5;41.20;46.00
09/12/2021 02:00;1;9;9;43.11;58.00
09/12/2021 02:30;1;5;5;43.60;48.00
09/12/2021 03:30;1;5;5;45.00;49.00
09/12/2021 04:00;1;8;8;39.50;46.00
09/12/2021 04:30;1;16;16;41.31;53.00
09/12/2021 05:00;1;19;19;42.47;62.00
09/12/2021 05:30;1;70;70;40.56;56.00
09/12/2021 06:00;1;89;89;40.72;58.00
09/12/2021 06:30;1;140;140;39.44;63.00
09/12/2021 07:00;1;161;161;38.75;66.00
09/12/2021 07:30;1;223;223;35.13;51.00
09/12/2021 08:00;1;180;180;36.52;55.00
09/12/2021 08:30;1;162;162;37.40;55.00
09/12/2021 09:00;1;180;180;33.87;51.00
09/12/2021 09:30;1;163;163;36.91;51.00
09/12/2021 10:00;1;159;159;36.66;49.00
09/12/2021 10:30;1;155;155;36.43;54.00
09/12/2021 11:00;1;148;148;36.22;50.00
09/12/2021 11:30;1;134;134;37.05;50.00
09/12/2021 12:00;1;122;122;37.25;52.00
09/12/2021 12:30;1;131;131;37.76;51.00
09/12/2021 13:00;1;121;121;37.50;50.00
09/12/2021 13:30;1;149;149;38.44;49.00
09/12/2021 14:00;1;122;122;37.83;57.00
09/12/2021 14:30;1;156;156;35.37;48.00
09/12/2021 15:00;1;145;145;37.72;60.00
09/12/2021 15:30;1;128;128;38.02;50.00
09/12/2021 16:00;1;126;126;36.03;58.00
09/12/2021 16:30;1;116;116;37.63;49.00
09/12/2021 17:00;1;131;131;36.81;50.00
09/12/2021 17:30;1;129;129;37.84;51.00
09/12/2021 18:00;1;128;128;37.88;55.00
09/12/2021 18:30;1;117;117;39.23;50.00
09/12/2021 19:00;1;103;103;39.36;53.00
09/12/2021 19:30;1;91;91;39.43;57.00
09/12/2021 20:00;1;83;83;39.76;65.00
09/12/2021 20:30;1;67;67;39.58;52.00
09/12/2021 21:00;1;45;45;39.67;58.00
09/12/2021 21:30;1;64;64;39.58;51.00
09/12/2021 22:00;1;56;56;40.62;57.00
09/12/2021 22:30;1;41;41;39.49;61.00
09/12/2021 23:00;1;25;25;37.84;51.00
09/12/2021 23:30;1;12;12;44.17;57.00
10/12/2021 00:00;1;17;17;37.65;48.00
10/12/2021 00:30;1;9;9;45.22;50.00
10/12/2021 01:00;1;7;7;36.57;47.00
10/12/2021 01:30;1;4;4;42.25;45.00
10/12/2021 02:00;1;3;3;47.67;54.00
10/12/2021 02:30;1;3;3;46.67;48.00
10/12/2021 03:00;1;1;1;42.00;42.00
10/12/2021 03:30;1;19;19;41.05;52.00
10/12/2021 04:00;1;4;4;47.75;61.00
10/12/2021 04:30;1;16;16;45.44;58.00
10/12/2021 05:00;1;17;17;37.24;56.00
10/12/2021 05:30;1;51;51;41.96;60.00
10/12/2021 06:00;1;93;93;41.57;60.00
10/12/2021 06:30;1;139;139;38.26;61.00
10/12/2021 07:00;1;169;169;39.04;57.00
10/12/2021 07:30;1;214;214;34.73;49.00
10/12/2021 08:00;1;178;178;37.56;53.00
10/12/2021 08:30;1;180;180;38.68;70.00
10/12/2021 09:00;1;201;201;37.68;53.00
10/12/2021 09:30;1;162;162;35.44;49.00
10/12/2021 10:00;1;140;140;36.36;55.00
10/12/2021 10:30;1;158;158;37.65;55.00
10/12/2021 11:00;1;139;139;37.06;54.00
10/12/2021 11:30;1;143;143;36.11;51.00
10/12/2021 12:00;1;125;125;36.38;50.00
10/12/2021 12:30;1;131;131;37.47;49.00
10/12/2021 13:00;1;113;113;36.71;54.00
10/12/2021 13:30;1;98;98;35.49;50.00
10/12/2021 14:00;1;126;126;36.59;53.00
10/12/2021 14:30;1;113;113;36.26;50.00
10/12/2021 15:00;1;104;104;36.41;59.00
10/12/2021 15:30;1;126;126;37.73;50.00
10/12/2021 16:00;1;124;124;36.70;57.00
10/12/2021 16:30;1;147;147;37.05;54.00
10/12/2021 17:00;1;121;121;37.50;56.00
10/12/2021 17:30;1;131;131;36.34;47.00
10/12/2021 18:00;1;111;111;37.27;56.00
10/12/2021 18:30;1;170;170;38.43;57.00
10/12/2021 19:00;1;125;125;37.35;48.00
10/12/2021 19:30;1;92;92;37.51;59.00
10/12/2021 20:00;1;85;85;39.96;55.00
10/12/2021 20:30;1;83;83;38.42;51.00
10/12/2021 21:00;1;67;67;40.22;54.00
10/12/2021 21:30;1;59;59;38.86;55.00
10/12/2021 22:00;1;53;53;41.38;69.00
10/12/2021 22:30;1;35;35;41.43;56.00
10/12/2021 23:00;1;42;42;41.90;82.00
10/12/2021 23:30;1;40;40;41.95;63.00
11/12/2021 00:00;1;27;27;40.81;73.00
11/12/2021 00:30;1;30;30;41.67;50.00
11/12/2021 01:00;1;11;11;38.36;45.00
11/12/2021 01:30;1;13;13;42.85;53.00
11/12/2021 02:00;1;11;11;50.00;67.00
11/12/2021 02:30;1;9;9;49.11;61.00
11/12/2021 03:00;1;8;8;41.88;53.00
11/12/2021 03:30;1;7;7;48.00;59.00
11/12/2021 04:00;1;3;3;46.00;51.00
11/12/2021 04:30;1;7;7;42.43;49.00
11/12/2021 05:00;1;12;12;38.67;51.00
11/12/2021 05:30;1;36;36;40.83;52.00
11/12/2021 06:00;1;24;24;42.21;55.00
11/12/2021 06:30;1;57;57;39.40;55.00
11/12/2021 07:00;1;45;45;40.76;56.00
11/12/2021 07:30;1;68;68;39.51;50.00
11/12/2021 08:00;1;98;98;40.34;68.00
11/12/2021 08:30;1;100;100;40.60;53.00
11/12/2021 09:00;1;119;119;39.29;59.00
11/12/2021 09:30;1;141;141;38.04;52.00
11/12/2021 10:00;1;150;150;37.63;50.00
11/12/2021 10:30;1;183;183;38.77;55.00
11/12/2021 11:00;1;147;147;37.73;55.00
11/12/2021 11:30;1;165;165;38.03;54.00
11/12/2021 12:00;1;139;139;36.91;60.00
11/12/2021 12:30;1;145;145;38.72;50.00
11/12/2021 13:00;1;132;132;37.84;60.00
11/12/2021 13:30;1;136;136;37.49;56.00
11/12/2021 14:00;1;153;153;37.42;52.00
11/12/2021 14:30;1;144;144;37.81;51.00
11/12/2021 15:00;1;142;142;36.63;54.00
11/12/2021 15:30;1;113;113;36.71;54.00
11/12/2021 16:00;1;132;132;38.44;60.00
11/12/2021 16:30;1;123;123;37.59;51.00
11/12/2021 17:00;1;122;122;36.80;51.00
11/12/2021 17:30;1;124;124;38.31;69.00
11/12/2021 18:00;1;109;109;38.65;56.00
11/12/2021 18:30;1;102;102;39.74;57.00
11/12/2021 19:00;1;95;95;37.47;57.00
11/12/2021 19:30;1;99;99;39.46;61.00
11/12/2021 20:00;1;97;97;40.35;52.00
11/12/2021 20:30;1;87;87;39.05;57.00
11/12/2021 21:00;1;71;71;41.15;65.00
11/12/2021 21:30;1;56;56;40.77;52.00
11/12/2021 22:00;1;50;50;41.10;59.00
11/12/2021 22:30;1;59;59;40.64;51.00
11/12/2021 23:00;1;39;39;43.13;61.00
11/12/2021 23:30;1;33;33;42.06;56.00
12/12/2021 00:00;1;21;21;42.38;73.00
12/12/2021 00:30;1;18;18;42.94;63.00
12/12/2021 01:00;1;20;20;45.65;71.00
12/12/2021 01:30;1;17;17;43.00;57.00
12/12/2021 02:00;1;10;10;43.80;52.00
12/12/2021 02:30;1;12;12;47.33;64.00
12/12/2021 03:00;1;7;7;50.57;85.00
12/12/2021 03:30;1;9;9;62.22;77.00
12/12/2021 04:00;1;8;8;41.12;56.00
12/12/2021 04:30;1;1;1;53.00;53.00
12/12/2021 05:00;1;7;7;47.43;73.00
12/12/2021 05:30;1;16;16;41.38;58.00
12/12/2021 06:00;1;12;12;45.17;57.00
12/12/2021 06:30;1;16;16;39.12;49.00
12/12/2021 07:00;1;29;29;40.72;53.00
12/12/2021 07:30;1;32;32;41.62;61.00
12/12/2021 08:00;1;26;26;41.88;58.00
12/12/2021 08:30;1;44;44;39.98;61.00
12/12/2021 09:00;1;53;53;41.49;53.00
12/12/2021 09:30;1;88;88;38.91;50.00
12/12/2021 10:00;1;81;81;39.95;53.00
12/12/2021 10:30;1;105;105;38.43;51.00
12/12/2021 11:00;1;85;85;39.96;69.00
12/12/2021 11:30;1;118;118;39.30;60.00
12/12/2021 12:00;1;113;113;39.01;56.00
12/12/2021 12:30;1;117;117;38.37;62.00
12/12/2021 13:00;1;138;138;39.46;53.00
12/12/2021 13:30;1;125;125;38.92;64.00
12/12/2021 14:00;1;129;129;38.73;58.00
12/12/2021 14:30;1;145;145;38.77;51.00
12/12/2021 15:00;1;116;116;38.22;55.00
12/12/2021 15:30;1;104;104;38.51;57.00
12/12/2021 16:00;1;98;98;38.37;49.00
12/12/2021 16:30;1;151;151;37.78;50.00
12/12/2021 17:00;1;141;141;37.96;51.00
12/12/2021 17:30;1;121;121;39.12;58.00
12/12/2021 18:00;1;137;137;39.98;61.00
12/12/2021 18:30;1;106;106;38.25;55.00
12/12/2021 19:00;1;102;102;38.16;57.00
12/12/2021 19:30;1;98;98;38.58;51.00
12/12/2021 20:00;1;92;92;38.00;58.00
12/12/2021 20:30;1;74;74;40.05;67.00
12/12/2021 21:00;1;66;66;43.11;73.00
12/12/2021 21:30;1;59;59;39.56;63.00
12/12/2021 22:00;1;35;35;40.71;64.00
12/12/2021 22:30;1;42;42;39.17;51.00
12/12/2021 23:00;1;16;16;39.81;70.00
12/12/2021 23:30;1;17;17;41.82;53.00
13/12/2021 00:00;1;9;9;31.67;43.00
13/12/2021 00:30;1;3;3;40.67;42.00
13/12/2021 01:00;1;5;5;44.20;53.00
13/12/2021 01:30;1;6;6;42.00;45.00
13/12/2021 02:00;1;2;2;42.50;43.00
13/12/2021 02:30;1;2;2;55.50;69.00
13/12/2021 03:30;1;6;6;42.50;47.00
13/12/2021 04:00;1;7;7;42.71;49.00
13/12/2021 04:30;1;23;23;40.43;49.00
13/12/2021 05:00;1;21;21;37.33;54.00
13/12/2021 05:30;1;45;45;42.76;54.00
13/12/2021 06:00;1;101;101;42.13;53.00
13/12/2021 06:30;1;152;152;38.34;50.00
13/12/2021 07:00;1;169;169;36.83;53.00
13/12/2021 07:30;1;237;237;35.33;55.00
13/12/2021 08:00;1;188;188;37.07;51.00
13/12/2021 08:30;1;190;190;37.23;55.00
13/12/2021 09:00;1;191;191;36.93;56.00
13/12/2021 09:30;1;179;179;35.96;47.00
13/12/2021 10:00;1;179;179;35.98;51.00
13/12/2021 10:30;1;151;151;35.79;53.00
13/12/2021 11:00;1;149;149;37.26;53.00
13/12/2021 11:30;1;130;130;35.98;52.00
13/12/2021 12:00;1;130;130;38.62;61.00
13/12/2021 12:30;1;148;148;37.99;56.00
13/12/2021 13:00;1;123;123;38.14;53.00
13/12/2021 13:30;1;125;125;38.10;53.00
13/12/2021 14:00;1;150;150;36.43;60.00
13/12/2021 14:30;1;149;149;36.50;52.00
13/12/2021 15:00;1;117;117;34.97;56.00
13/12/2021 15:30;1;125;125;38.49;51.00
13/12/2021 16:00;1;150;150;38.09;52.00
13/12/2021 16:30;1;144;144;37.55;55.00
13/12/2021 17:00;1;132;132;35.78;48.00
13/12/2021 17:30;1;118;118;36.86;52.00
13/12/2021 18:00;1;114;114;38.66;57.00
13/12/2021 18:30;1;138;138;38.99;65.00
13/12/2021 19:00;1;104;104;38.41;51.00
13/12/2021 19:30;1;85;85;38.49;56.00
13/12/2021 20:00;1;88;88;39.10;64.00
13/12/2021 20:30;1;73;73;39.36;53.00
13/12/2021 21:00;1;68;68;38.34;58.00
13/12/2021 21:30;1;51;51;41.94;58.00
13/12/2021 22:00;1;39;39;40.59;56.00
13/12/2021 22:30;1;29;29;40.28;50.00
13/12/2021 23:00;1;22;22;40.36;59.00
13/12/2021 23:30;1;15;15;41.33;71.00
14/12/2021 00:00;1;8;8;31.50;40.00
14/12/2021 00:30;1;10;10;41.60;51.00
14/12/2021 01:00;1;5;5;45.40;65.00
14/12/2021 02:00;1;2;2;39.00;42.00
14/12/2021 02:30;1;1;1;44.00;44.00
14/12/2021 03:00;1;1;1;40.00;40.00
14/12/2021 03:30;1;12;12;42.08;51.00
14/12/2021 04:00;1;6;6;43.67;51.00
14/12/2021 04:30;1;17;17;43.71;51.00
14/12/2021 05:00;1;30;30;40.37;56.00
14/12/2021 05:30;1;50;50;41.96;51.00
14/12/2021 06:00;1;102;102;42.68;61.00
14/12/2021 06:30;1;144;144;39.30;53.00
14/12/2021 07:00;1;166;166;36.55;49.00
14/12/2021 07:30;1;194;194;34.36;51.00
14/12/2021 08:00;1;187;187;36.15;49.00
14/12/2021 08:30;1;174;174;36.63;55.00
14/12/2021 09:00;1;181;181;35.80;49.00
14/12/2021 09:30;1;177;177;36.36;51.00
14/12/2021 10:00;1;172;172;37.49;51.00
14/12/2021 10:30;1;166;166;36.08;51.00
14/12/2021 11:00;1;147;147;36.89;51.00
14/12/2021 11:30;1;157;157;36.68;53.00
14/12/2021 12:00;1;132;132;35.92;48.00
14/12/2021 12:30;1;129;129;38.94;56.00
14/12/2021 13:00;1;136;136;39.76;62.00
14/12/2021 13:30;1;155;155;37.61;51.00
14/12/2021 14:00;1;127;127;36.87;52.00
14/12/2021 14:30;1;156;156;36.07;52.00
14/12/2021 15:00;1;135;135;38.10;53.00
14/12/2021 15:30;1;137;137;36.79;54.00
14/12/2021 16:00;1;131;131;36.73;80.00
14/12/2021 16:30;1;142;142;36.38;47.00
14/12/2021 17:00;1;122;122;36.48;57.00
14/12/2021 17:30;1;142;142;35.60;49.00
14/12/2021 18:00;1;107;107;37.46;53.00
14/12/2021 18:30;1;143;143;38.04;58.00
14/12/2021 19:00;1;83;83;38.42;53.00
14/12/2021 19:30;1;100;100;39.42;62.00
14/12/2021 20:00;1;78;78;37.60;54.00
14/12/2021 20:30;1;79;79;36.96;53.00
14/12/2021 21:00;1;63;63;40.24;56.00
14/12/2021 21:30;1;61;61;40.46;62.00
14/12/2021 22:00;1;55;55;40.67;56.00
14/12/2021 22:30;1;40;40;38.77;50.00
14/12/2021 23:00;1;21;21;36.00;48.00
14/12/2021 23:30;1;17;17;39.41;50.00
15/12/2021 00:00;1;12;12;36.08;47.00
15/12/2021 00:30;1;7;7;42.14;65.00
15/12/2021 01:00;1;6;6;32.50;39.00
15/12/2021 01:30;1;6;6;39.17;45.00
15/12/2021 02:00;1;1;1;41.00;41.00
15/12/2021 02:30;1;2;2;43.50;44.00
15/12/2021 03:00;1;2;2;34.00;37.00
15/12/2021 03:30;1;12;12;42.17;54.00
15/12/2021 04:00;1;3;3;40.33;47.00
15/12/2021 04:30;1;15;15;44.07;59.00
15/12/2021 05:00;1;23;23;40.04;52.00
15/12/2021 05:30;1;40;40;39.45;55.00
15/12/2021 06:00;1;106;106;41.69;57.00
15/12/2021 06:30;1;132;132;39.21;57.00
15/12/2021 07:00;1;178;178;37.74;49.00
15/12/2021 07:30;1;217;217;34.30;52.00
15/12/2021 08:00;1;177;177;36.25;57.00
15/12/2021 08:30;1;167;167;35.36;55.00
15/12/2021 09:00;1;187;187;35.29;53.00
15/12/2021 09:30;1;171;171;36.11;63.00
15/12/2021 10:00;1;178;178;36.14;51.00
15/12/2021 10:30;1;153;153;34.83;50.00
15/12/2021 11:00;1;125;125;36.49;47.00
15/12/2021 11:30;1;152;152;36.00;54.00
15/12/2021 12:00;1;120;120;38.14;58.00
15/12/2021 12:30;1;145;145;37.01;61.00
15/12/2021 13:00;1;129;129;36.27;49.00
15/12/2021 13:30;1;136;136;35.99;52.00
15/12/2021 14:00;1;134;134;35.77;48.00
15/12/2021 14:30;1;145;145;37.19;57.00
15/12/2021 15:00;1;140;140;37.16;58.00
15/12/2021 15:30;1;147;147;36.72;49.00
15/12/2021 16:00;1;145;145;35.92;53.00
15/12/2021 16:30;1;115;115;34.94;49.00
15/12/2021 17:00;1;116;116;36.35;50.00
15/12/2021 17:30;1;134;134;37.60;49.00
15/12/2021 18:00;1;142;142;36.47;53.00
15/12/2021 18:30;1;137;137;37.94;61.00
15/12/2021 19:00;1;97;97;38.57;55.00
15/12/2021 19:30;1;94;94;38.12;53.00
15/12/2021 20:00;1;90;90;38.33;54.00
15/12/2021 20:30;1;67;67;40.52;56.00
15/12/2021 21:00;1;78;78;39.26;55.00
15/12/2021 21:30;1;59;59;39.81;52.00
15/12/2021 22:00;1;41;41;38.85;49.00
15/12/2021 22:30;1;50;50;40.78;53.00
15/12/2021 23:00;1;30;30;41.37;52.00
15/12/2021 23:30;1;27;27;41.89;54.00
16/12/2021 00:00;1;9;9;33.22;57.00
16/12/2021 00:30;1;7;7;39.86;53.00
16/12/2021 01:00;1;5;5;38.60;43.00
16/12/2021 01:30;1;5;5;46.40;65.00
16/12/2021 02:00;1;4;4;44.25;47.00
16/12/2021 02:30;1;1;1;43.00;43.00
16/12/2021 03:00;1;2;2;52.00;54.00
16/12/2021 03:30;1;8;8;44.62;59.00
16/12/2021 04:00;1;4;4;44.50;53.00
16/12/2021 04:30;1;23;23;39.48;63.00
16/12/2021 05:00;1;18;18;38.83;52.00
16/12/2021 05:30;1;61;61;40.51;70.00
16/12/2021 06:00;1;85;85;42.08;53.00
16/12/2021 06:30;1;134;134;38.32;64.00
16/12/2021 07:00;1;176;176;37.43;56.00
16/12/2021 07:30;1;233;233;35.75;52.00
16/12/2021 08:00;1;167;167;36.72;56.00
16/12/2021 08:30;1;188;188;34.94;50.00
16/12/2021 09:00;1;165;165;36.24;65.00
16/12/2021 09:30;1;165;165;35.73;50.00
16/12/2021 10:00;1;173;173;35.14;54.00
16/12/2021 10:30;1;154;154;36.91;52.00
16/12/2021 11:00;1;45;45;34.44;45.00
16/12/2021 11:30;1;64;64;38.16;49.00
16/12/2021 12:00;1;50;50;39.86;55.00
16/12/2021 12:30;1;23;23;39.04;47.00
16/12/2021 13:00;1;44;44;37.14;46.00
16/12/2021 13:30;1;32;32;36.25;47.00
16/12/2021 14:00;1;59;59;38.98;53.00
16/12/2021 14:30;1;141;141;37.90;52.00
16/12/2021 15:00;1;163;163;37.17;51.00
16/12/2021 15:30;1;130;130;36.10;77.00
16/12/2021 16:00;1;157;157;36.83;57.00
16/12/2021 16:30;1;147;147;36.73;55.00
16/12/2021 17:00;1;120;120;35.98;52.00
16/12/2021 17:30;1;116;116;35.98;48.00
16/12/2021 18:00;1;115;115;36.99;52.00
16/12/2021 18:30;1;142;142;37.68;54.00
16/12/2021 19:00;1;93;93;38.85;62.00
16/12/2021 19:30;1;100;100;38.11;52.00
16/12/2021 20:00;1;80;80;37.83;57.00
16/12/2021 20:30;1;78;78;39.47;51.00
16/12/2021 21:00;1;65;65;39.66;59.00
16/12/2021 21:30;1;53;53;41.21;50.00
16/12/2021 22:00;1;61;61;41.36;71.00
16/12/2021 22:30;1;55;55;39.87;70.00
16/12/2021 23:00;1;28;28;42.00;71.00
16/12/2021 23:30;1;15;15;41.33;48.00
17/12/2021 00:00;1;8;8;38.62;48.00
17/12/2021 00:30;1;12;12;41.58;51.00
17/12/2021 01:00;1;10;10;38.50;46.00
17/12/2021 01:30;1;3;3;42.33;46.00
17/12/2021 02:00;1;6;6;48.17;56.00
17/12/2021 02:30;1;4;4;51.00;60.00
17/12/2021 03:00;1;2;2;44.00;49.00
17/12/2021 03:30;1;14;14;42.07;51.00
17/12/2021 04:00;1;5;5;37.80;45.00
17/12/2021 04:30;1;14;14;45.79;53.00
17/12/2021 05:00;1;21;21;39.57;52.00
17/12/2021 05:30;1;59;59;40.27;55.00
17/12/2021 06:00;1;84;84;41.70;52.00
17/12/2021 06:30;1;134;134;39.60;55.00
17/12/2021 07:00;1;166;166;38.35;56.00
17/12/2021 07:30;1;228;228;35.23;52.00
17/12/2021 08:00;1;181;181;37.61;50.00
17/12/2021 08:30;1;161;161;36.60;51.00
17/12/2021 09:00;1;164;164;36.18;50.00
17/12/2021 09:30;1;171;171;36.91;54.00
17/12/2021 10:00;1;167;167;37.11;48.00
17/12/2021 10:30;1;169;169;36.77;52.00
17/12/2021 11:00;1;141;141;36.32;48.00
17/12/2021 11:30;1;139;139;37.08;53.00
17/12/2021 12:00;1;129;129;37.58;58.00
17/12/2021 12:30;1;156;156;38.19;55.00
17/12/2021 13:00;1;131;131;37.36;54.00
17/12/2021 13:30;1;157;157;37.61;53.00
17/12/2021 14:00;1;150;150;37.75;54.00
17/12/2021 14:30;1;167;167;38.42;53.00
17/12/2021 15:00;1;131;131;37.69;49.00
17/12/2021 15:30;1;145;145;35.68;51.00
17/12/2021 16:00;1;136;136;39.60;52.00
17/12/2021 16:30;1;136;136;35.44;69.00
17/12/2021 17:00;1;150;150;37.19;54.00
17/12/2021 17:30;1;139;139;37.22;53.00
17/12/2021 18:00;1;132;132;37.04;49.00
17/12/2021 18:30;1;132;132;37.77;52.00
17/12/2021 19:00;1;105;105;38.70;58.00
17/12/2021 19:30;1;115;115;38.76;53.00
17/12/2021 20:00;1;96;96;37.26;49.00
17/12/2021 20:30;1;76;76;39.28;54.00
17/12/2021 21:00;1;67;67;39.25;55.00
17/12/2021 21:30;1;67;67;42.15;61.00
17/12/2021 22:00;1;48;48;39.29;53.00
17/12/2021 22:30;1;55;55;41.00;62.00
17/12/2021 23:00;1;38;38;40.87;63.00
17/12/2021 23:30;1;37;37;44.22;78.00
18/12/2021 00:00;1;21;21;41.14;60.00
18/12/2021 00:30;1;19;19;41.84;54.00
18/12/2021 01:00;1;19;19;41.95;70.00
18/12/2021 01:30;1;15;15;38.73;56.00
18/12/2021 02:00;1;7;7;48.86;65.00
18/12/2021 02:30;1;10;10;52.30;72.00
18/12/2021 03:00;1;8;8;53.00;71.00
18/12/2021 03:30;1;13;13;44.38;63.00
18/12/2021 04:00;1;2;2;43.50;49.00
18/12/2021 04:30;1;10;10;45.40;57.00
18/12/2021 05:00;1;17;17;39.88;59.00
18/12/2021 05:30;1;36;36;41.58;50.00
18/12/2021 06:00;1;25;25;42.44;49.00
18/12/2021 06:30;1;44;44;40.14;59.00
18/12/2021 07:00;1;62;62;40.45;57.00
18/12/2021 07:30;1;81;81;38.40;53.00
18/12/2021 08:00;1;95;95;40.89;53.00
18/12/2021 08:30;1;103;103;39.90;49.00
18/12/2021 09:00;1;128;128;38.25;51.00
18/12/2021 09:30;1;163;163;38.54;59.00
18/12/2021 10:00;1;158;158;38.15;63.00
18/12/2021 10:30;1;143;143;37.79;51.00
18/12/2021 11:00;1;163;163;38.40;51.00
18/12/2021 11:30;1;168;168;36.45;48.00
18/12/2021 12:00;1;143;143;38.30;59.00
18/12/2021 12:30;1;147;147;36.87;54.00
18/12/2021 13:00;1;138;138;35.64;49.00
18/12/2021 13:30;1;149;149;37.27;55.00
18/12/2021 14:00;1;126;126;38.41;54.00
18/12/2021 14:30;1;140;140;38.62;54.00
18/12/2021 15:00;1;137;137;35.55;50.00
18/12/2021 15:30;1;149;149;37.42;59.00
18/12/2021 16:00;1;101;101;37.75;64.00
19/12/2021 12:00;1;76;76;40.53;79.00
19/12/2021 12:30;1;120;120;40.89;71.00
19/12/2021 13:00;1;91;91;39.34;63.00
19/12/2021 13:30;1;130;130;37.71;49.00
19/12/2021 14:00;1;110;110;40.11;55.00
19/12/2021 14:30;1;131;131;39.66;55.00
19/12/2021 15:00;1;105;105;38.83;67.00
19/12/2021 15:30;1;136;136;37.57;53.00
19/12/2021 16:00;1;116;116;38.53;56.00
19/12/2021 16:30;1;147;147;37.35;54.00
19/12/2021 17:00;1;128;128;37.49;54.00
20/12/2021 11:00;1;98;98;37.24;51.00
20/12/2021 11:30;1;161;161;37.15;56.00
20/12/2021 12:00;1;131;131;38.45;52.00
20/12/2021 12:30;1;134;134;38.68;58.00
20/12/2021 13:00;1;129;129;38.27;60.00
20/12/2021 13:30;1;150;150;38.16;58.00
20/12/2021 14:00;1;149;149;37.19;55.00
20/12/2021 14:30;1;169;169;36.13;58.00
20/12/2021 15:00;1;158;158;36.73;61.00
20/12/2021 15:30;1;153;153;36.69;53.00
20/12/2021 16:00;1;126;126;37.22;53.00
20/12/2021 16:30;1;129;129;36.55;51.00
20/12/2021 17:00;1;119;119;35.98;48.00
20/12/2021 17:30;1;126;126;38.15;51.00
20/12/2021 18:00;1;123;123;36.83;79.00
20/12/2021 18:30;1;125;125;36.31;64.00
20/12/2021 19:00;1;110;110;36.35;50.00
20/12/2021 19:30;1;102;102;36.52;56.00
20/12/2021 20:00;1;79;79;38.00;60.00
20/12/2021 20:30;1;85;85;38.08;53.00
20/12/2021 21:00;1;61;61;40.34;59.00
20/12/2021 21:30;1;59;59;40.44;52.00
20/12/2021 22:00;1;37;37;39.19;60.00
20/12/2021 22:30;1;33;33;41.03;80.00
20/12/2021 23:00;1;30;30;41.53;79.00
20/12/2021 23:30;1;24;24;39.46;58.00
21/12/2021 00:00;1;13;13;38.23;54.00
21/12/2021 00:30;1;10;10;42.30;54.00
21/12/2021 01:00;1;10;10;44.00;64.00
21/12/2021 01:30;1;4;4;37.50;45.00
21/12/2021 02:00;1;3;3;41.33;43.00
21/12/2021 02:30;1;1;1;55.00;55.00
21/12/2021 03:00;1;3;3;36.67;42.00
21/12/2021 03:30;1;10;10;44.90;64.00
21/12/2021 04:00;1;8;8;40.75;47.00
21/12/2021 04:30;1;19;19;42.05;53.00
21/12/2021 05:00;1;21;21;38.71;48.00
21/12/2021 05:30;1;65;65;41.08;58.00
21/12/2021 06:00;1;84;84;42.82;55.00
21/12/2021 06:30;1;128;128;39.40;54.00